Weather History for Pine Bluff, AR

Change the Weather History Date:

Saturday, August 10, 2013

  Actual Average Record
Temperature  
Mean Temperature 83 °F 82 °F  
Max Temperature 90 °F 92 °F 109 °F (1943)
Min Temperature 75 °F 71 °F 59 °F (1953)
Degree Days  
Heating Degree Days 0 0  
Month to date heating degree days 0 0  
Since 1 June heating degree days 0 0  
Since 1 July heating degree days 0 0  
Cooling Degree Days 18 17  
Month to date cooling degree days 191 170  
Year to date cooling degree days 1348 1427  
Since 1 June cooling degree days 1081 1120  
Growing Degree Days 32 (Base 50)    
Moisture  
Dew Point 74 °F    
Average Humidity 75    
Maximum Humidity 87    
Minimum Humidity 63    
Precipitation  
Precipitation 0.00 in 0.07 in 1.66 in (2008)
Month to date precipitation 0.00 0.96  
Year to date precipitation 30.67 31.67  
Snow  
Snow 0.00 in 0.00 in - ()
Month to date snowfall 0.0 0.0  
Since 1 June snowfall 0.0 0.0  
Since 1 July snowfall 0.0 0.0  
Snow Depth 0.00 in    
Sea Level Pressure  
Sea Level Pressure 30.04 in    
Wind  
Wind Speed 6 mph (ESE)    
Max Wind Speed 20 mph    
Max Gust Speed 23 mph    
Visibility 10 miles    
Events Thunderstorm    
T = Trace of Precipitation, MM = Missing Value Source: NWS Daily Summary

Daily Weather History Graph

Daily Weather History Graph

Search for Another Location

Airport:

Trip Planner

Search our weather history database for the weather conditions in past years. The results will help you decide how hot, cold, wet, or windy it might be!

Date:

Astronomy

Aug. 10, 2013 Rise Set
Actual Time 6:25 AM CDT 7:59 PM CDT
Civil Twilight 5:58 AM CDT 8:26 PM CDT
Nautical Twilight 5:26 AM CDT 8:58 PM CDT
Astronomical Twilight 4:52 AM CDT 9:32 PM CDT
Moon 9:59 AM CDT (8/10) 9:56 PM CDT (8/10)
Length of Visible Light 14h 27m
Length of Day
13h 34m
Waxing Crescent, 14% of the Moon is Illuminated
Aug 10
Waxing Crescent
Aug 14
First Quarter
Aug 20
Full
Aug 28
Last Quarter
Sep 5
New

Hourly Weather History & Observations

Time (CDT) Temp. Heat Index Dew Point Humidity Pressure Visibility Wind Dir Wind Speed Gust Speed Precip Events Conditions
12:53 AM 81.0 °F 86.2 °F 73.9 °F 79% 29.99 in 10.0 mi SE 4.6 mph - N/A   Clear
1:53 AM 80.1 °F 84.5 °F 73.9 °F 81% 29.99 in 10.0 mi South 4.6 mph - N/A   Clear
2:53 AM 80.1 °F 83.8 °F 72.0 °F 76% 29.99 in 10.0 mi SSW 8.1 mph - N/A   Clear
3:53 AM 79.0 °F - 71.1 °F 77% 29.99 in 10.0 mi SSW 6.9 mph - N/A   Clear
4:53 AM 78.1 °F - 71.1 °F 79% 29.99 in 10.0 mi SSW 6.9 mph - N/A   Clear
5:53 AM 77.0 °F - 71.1 °F 82% 30.01 in 10.0 mi SW 3.5 mph - N/A   Clear
6:53 AM 75.9 °F - 72.0 °F 87% 30.03 in 10.0 mi Calm Calm - N/A   Clear
7:53 AM 78.1 °F - 72.0 °F 81% 30.04 in 10.0 mi South 3.5 mph - N/A   Clear
8:53 AM 81.0 °F 85.8 °F 73.0 °F 77% 30.06 in 10.0 mi South 4.6 mph - N/A   Overcast
9:53 AM 82.9 °F 88.8 °F 73.0 °F 72% 30.07 in 10.0 mi Calm Calm - N/A   Partly Cloudy
10:53 AM 88.0 °F 97.5 °F 75.0 °F 65% 30.08 in 10.0 mi Variable 3.5 mph - N/A   Partly Cloudy
11:45 AM 89.6 °F 99.8 °F 75.2 °F 62% 30.09 in 10.0 mi North 8.1 mph - N/A   Mostly Cloudy
11:53 AM 89.1 °F 99.1 °F 75.0 °F 63% 30.09 in 10.0 mi North 9.2 mph - N/A   Scattered Clouds
12:08 PM 87.8 °F 97.6 °F 75.2 °F 66% 30.09 in 10.0 mi NE 10.4 mph - N/A   Mostly Cloudy
12:53 PM 87.1 °F 95.4 °F 73.9 °F 65% 30.06 in 10.0 mi NE 15.0 mph 21.9 mph N/A   Mostly Cloudy
1:03 PM 87.8 °F 95.6 °F 73.4 °F 62% 30.07 in 10.0 mi NE 13.8 mph - N/A Thunderstorm Scattered Clouds
1:53 PM 84.9 °F 91.4 °F 73.0 °F 67% 30.06 in 10.0 mi ENE 9.2 mph - N/A Thunderstorm Clear
2:18 PM 84.2 °F 90.9 °F 73.4 °F 70% 30.06 in 10.0 mi East 6.9 mph - N/A   Partly Cloudy
2:53 PM 84.0 °F 91.9 °F 75.0 °F 74% 30.03 in 10.0 mi SE 4.6 mph - N/A   Clear
3:53 PM 89.1 °F 99.1 °F 75.0 °F 63% 30.01 in 10.0 mi East 8.1 mph - N/A   Clear
4:53 PM 89.1 °F 99.1 °F 75.0 °F 63% 30.00 in 10.0 mi SE 6.9 mph - N/A   Clear
5:53 PM 87.1 °F 97.3 °F 75.9 °F 69% 30.00 in 10.0 mi SE 9.2 mph - N/A   Clear
6:53 PM 86.0 °F 96.0 °F 75.9 °F 72% 30.02 in 10.0 mi ESE 5.8 mph - N/A   Clear
7:53 PM 82.9 °F 90.8 °F 75.9 °F 79% 30.02 in 10.0 mi Calm Calm - N/A   Clear
8:53 PM 82.9 °F 90.2 °F 75.0 °F 77% 30.04 in 10.0 mi ENE 4.6 mph - N/A   Partly Cloudy
9:38 PM 80.6 °F 85.4 °F 73.4 °F 79% 30.07 in 10.0 mi North 10.4 mph - N/A Thunderstorm Partly Cloudy
9:53 PM 80.1 °F 83.8 °F 72.0 °F 76% 30.07 in 10.0 mi North 11.5 mph - N/A   Mostly Cloudy
10:53 PM 79.0 °F - 72.0 °F 79% 30.05 in 10.0 mi NE 6.9 mph - N/A   Clear
11:53 PM 79.0 °F - 73.0 °F 82% 30.04 in 10.0 mi East 5.8 mph - N/A   Clear